When you browse on this site, cookies collect data to enhance your experience and personalize the content and advertising you see.
Visit our Privacy Policy to learn more. By continuing to use the site, you agree to this use of cookies and data.

Meteo pe oră la Dalat

Astăzi, 11 August, Marţi

Timp Temperatura Precipitaţii Vânt Presiune Umiditate
00:00 +19°C° 0 mm 1 m/s 651 mmHg 93%
01:00 +19°C° 0 mm 1 m/s 651 mmHg 93%
02:00 +19°C° 0 mm 1 m/s 650 mmHg 94%
03:00 +19°C° 0 mm 1 m/s 650 mmHg 94%
04:00 +19°C° 0 mm 1 m/s 650 mmHg 95%
05:00 +20°C° 0 mm 1 m/s 650 mmHg 94%
06:00 +20°C° 0 mm 1 m/s 651 mmHg 92%
07:00 +21°C° 0 mm 1 m/s 651 mmHg 92%
08:00 +22°C° 0.1 mm 1 m/s 651 mmHg 87%
09:00 +24°C° 0.1 mm 1 m/s 652 mmHg 81%
10:00 +25°C° 0.1 mm 1 m/s 652 mmHg 76%
11:00 +26°C° 0.5 mm 1 m/s 652 mmHg 76%
12:00 +26°C° 0.5 mm 1 m/s 652 mmHg 76%
13:00 +27°C° 0.5 mm 1 m/s 651 mmHg 76%
14:00 +26°C° 2.3 mm 1 m/s 651 mmHg 81%
15:00 +25°C° 2.3 mm 1 m/s 651 mmHg 85%
16:00 +25°C° 2.3 mm 1 m/s 650 mmHg 90%
17:00 +23°C° 1 mm 1 m/s 650 mmHg 92%
18:00 +22°C° 1 mm 1 m/s 650 mmHg 94%
19:00 +19°C° 1 mm 0 m/s 650 mmHg 97%
20:00 +21°C° 0.1 mm 1 m/s 651 mmHg 97%
21:00 +21°C° 0.1 mm 1 m/s 651 mmHg 97%
22:00 +21°C° 0.1 mm 1 m/s 652 mmHg 97%
23:00 +20°C° 0.3 mm 1 m/s 652 mmHg 97%

Mâine, 12 August, Miercuri

Timp Temperatura Precipitaţii Vânt Presiune Umiditate
00:00 +20°C° 0.3 mm 1 m/s 651 mmHg 97%
01:00 +20°C° 0.3 mm 1 m/s 651 mmHg 97%
02:00 +20°C° 0 mm 1 m/s 651 mmHg 97%
03:00 +20°C° 0 mm 1 m/s 651 mmHg 97%
04:00 +20°C° 0 mm 1 m/s 651 mmHg 97%
05:00 +20°C° 0.1 mm 1 m/s 651 mmHg 96%
06:00 +21°C° 0.1 mm 1 m/s 651 mmHg 95%
07:00 +21°C° 0.1 mm 1 m/s 652 mmHg 94%
08:00 +22°C° 0.8 mm 1 m/s 652 mmHg 90%
09:00 +24°C° 0.8 mm 1 m/s 653 mmHg 86%
10:00 +25°C° 0.8 mm 1 m/s 654 mmHg 81%
11:00 +25°C° 1.6 mm 1 m/s 653 mmHg 81%
12:00 +25°C° 1.6 mm 1 m/s 653 mmHg 82%
13:00 +25°C° 1.6 mm 1 m/s 653 mmHg 82%
14:00 +24°C° 1.5 mm 1 m/s 652 mmHg 86%
15:00 +24°C° 1.5 mm 1 m/s 651 mmHg 91%
16:00 +21°C° 1.5 mm 0 m/s 651 mmHg 95%
17:00 +20°C° 1.3 mm 0 m/s 651 mmHg 96%
18:00 +19°C° 1.3 mm 0 m/s 651 mmHg 96%
19:00 +19°C° 1.3 mm 0 m/s 652 mmHg 97%
20:00 +19°C° 0.9 mm 0 m/s 652 mmHg 97%
21:00 +18°C° 0.9 mm 0 m/s 652 mmHg 97%
22:00 +18°C° 0.9 mm 0 m/s 653 mmHg 97%
23:00 +18°C° 1.1 mm 0 m/s 652 mmHg 97%

Poimâine, 13 August, Joi

Timp Temperatura Precipitaţii Vânt Presiune Umiditate
00:00 +18°C° 1.1 mm 0 m/s 652 mmHg 98%
01:00 +20°C° 1.1 mm 1 m/s 652 mmHg 98%
02:00 +20°C° 1.9 mm 1 m/s 652 mmHg 98%
03:00 +20°C° 1.9 mm 1 m/s 651 mmHg 98%
04:00 +20°C° 1.9 mm 1 m/s 651 mmHg 98%
05:00 +20°C° 1.5 mm 1 m/s 651 mmHg 97%
06:00 +20°C° 1.5 mm 1 m/s 652 mmHg 97%
07:00 +21°C° 1.5 mm 1 m/s 652 mmHg 96%
08:00 +21°C° 1 mm 1 m/s 652 mmHg 95%
09:00 +22°C° 1 mm 1 m/s 653 mmHg 93%
10:00 +23°C° 1 mm 1 m/s 653 mmHg 91%
11:00 +20°C° 1.8 mm 0 m/s 653 mmHg 93%
12:00 +20°C° 1.8 mm 0 m/s 652 mmHg 94%
13:00 +20°C° 1.8 mm 0 m/s 652 mmHg 95%
14:00 +20°C° 0.9 mm 0 m/s 651 mmHg 95%
15:00 +20°C° 0.9 mm 0 m/s 651 mmHg 95%
16:00 +20°C° 0.9 mm 0 m/s 650 mmHg 94%
17:00 +19°C° 0.2 mm 0 m/s 650 mmHg 95%
18:00 +19°C° 0.2 mm 0 m/s 651 mmHg 96%
19:00 +18°C° 0.2 mm 0 m/s 651 mmHg 97%
20:00 +18°C° 0.1 mm 0 m/s 651 mmHg 97%
21:00 +18°C° 0.1 mm 0 m/s 652 mmHg 97%
22:00 +17°C° 0.1 mm 0 m/s 652 mmHg 97%
23:00 +17°C° 0.3 mm 0 m/s 652 mmHg 97%

14 August, Vineri

Timp Temperatura Precipitaţii Vânt Presiune Umiditate
00:00 +17°C° 0.3 mm 0 m/s 651 mmHg 97%
01:00 +17°C° 0.3 mm 0 m/s 651 mmHg 98%
02:00 +19°C° 0.1 mm 1 m/s 651 mmHg 97%
03:00 +19°C° 0.1 mm 1 m/s 650 mmHg 97%
04:00 +19°C° 0.1 mm 1 m/s 650 mmHg 97%
05:00 +17°C° 0 mm 0 m/s 651 mmHg 96%
06:00 +18°C° 0 mm 0 m/s 651 mmHg 95%
07:00 +18°C° 0 mm 0 m/s 652 mmHg 93%
08:00 +20°C° 0.2 mm 0 m/s 652 mmHg 88%
09:00 +23°C° 0.2 mm 1 m/s 653 mmHg 83%
10:00 +24°C° 0.2 mm 1 m/s 653 mmHg 78%
11:00 +24°C° 1.3 mm 1 m/s 653 mmHg 80%
12:00 +24°C° 1.3 mm 1 m/s 652 mmHg 82%
13:00 +25°C° 1.3 mm 1 m/s 652 mmHg 84%
14:00 +24°C° 1.5 mm 1 m/s 651 mmHg 86%
15:00 +24°C° 1.5 mm 1 m/s 651 mmHg 89%
16:00 +23°C° 1.5 mm 1 m/s 650 mmHg 91%
17:00 +22°C° 1.3 mm 1 m/s 650 mmHg 93%
18:00 +19°C° 1.3 mm 0 m/s 650 mmHg 94%
19:00 +18°C° 1.3 mm 0 m/s 651 mmHg 96%
20:00 +18°C° 1 mm 0 m/s 651 mmHg 96%
21:00 +19°C° 1 mm 1 m/s 651 mmHg 97%
22:00 +19°C° 1 mm 1 m/s 652 mmHg 97%
23:00 +19°C° 0.8 mm 1 m/s 651 mmHg 97%

15 August, Sâmbătă

Timp Temperatura Precipitaţii Vânt Presiune Umiditate
00:00 +19°C° 0.8 mm 1 m/s 651 mmHg 97%
01:00 +19°C° 0.8 mm 1 m/s 651 mmHg 98%
02:00 +19°C° 0.6 mm 1 m/s 651 mmHg 97%
03:00 +18°C° 0.6 mm 1 m/s 650 mmHg 97%
04:00 +18°C° 0.6 mm 1 m/s 650 mmHg 97%
05:00 +19°C° 0.8 mm 1 m/s 650 mmHg 96%
06:00 +20°C° 0.8 mm 1 m/s 651 mmHg 95%
07:00 +20°C° 0.8 mm 1 m/s 651 mmHg 93%
08:00 +22°C° 0.6 mm 1 m/s 652 mmHg 88%
09:00 +23°C° 0.6 mm 1 m/s 652 mmHg 83%
10:00 +25°C° 0.6 mm 1 m/s 653 mmHg 78%
11:00 +25°C° 1.3 mm 1 m/s 652 mmHg 78%
12:00 +25°C° 1.3 mm 1 m/s 652 mmHg 79%
13:00 +26°C° 1.3 mm 1 m/s 652 mmHg 79%
14:00 +25°C° 1.7 mm 1 m/s 651 mmHg 83%
15:00 +24°C° 1.7 mm 1 m/s 651 mmHg 87%
16:00 +23°C° 1.7 mm 1 m/s 650 mmHg 92%
17:00 +20°C° 0.2 mm 0 m/s 650 mmHg 94%
18:00 +19°C° 0.2 mm 0 m/s 650 mmHg 95%
19:00 +18°C° 0.2 mm 0 m/s 651 mmHg 97%
20:00 +18°C° 0.5 mm 0 m/s 651 mmHg 97%
21:00 +18°C° 0.5 mm 0 m/s 651 mmHg 98%
22:00 +17°C° 0.5 mm 0 m/s 652 mmHg 98%
23:00 +17°C° 0.6 mm 0 m/s 651 mmHg 98%

16 August, Duminică

Timp Temperatura Precipitaţii Vânt Presiune Umiditate
00:00 +17°C° 0.6 mm 0 m/s 651 mmHg 98%
01:00 +17°C° 0.6 mm 0 m/s 651 mmHg 98%
02:00 +17°C° 0.2 mm 0 m/s 651 mmHg 98%
03:00 +19°C° 0.2 mm 1 m/s 651 mmHg 98%
04:00 +19°C° 0.2 mm 1 m/s 651 mmHg 98%
05:00 +18°C° 0 mm 0 m/s 651 mmHg 97%
06:00 +18°C° 0 mm 0 m/s 652 mmHg 96%
07:00 +19°C° 0 mm 0 m/s 652 mmHg 95%
08:00 +20°C° 0.6 mm 0 m/s 652 mmHg 90%
09:00 +23°C° 0.6 mm 1 m/s 653 mmHg 85%
10:00 +25°C° 0.6 mm 1 m/s 653 mmHg 80%
11:00 +25°C° 1.7 mm 1 m/s 653 mmHg 82%
12:00 +25°C° 1.7 mm 1 m/s 652 mmHg 84%
13:00 +25°C° 1.7 mm 1 m/s 652 mmHg 85%
14:00 +24°C° 1.3 mm 1 m/s 651 mmHg 87%
15:00 +24°C° 1.3 mm 1 m/s 651 mmHg 89%
16:00 +24°C° 1.3 mm 1 m/s 650 mmHg 90%
17:00 +21°C° 0.7 mm 0 m/s 650 mmHg 93%
18:00 +19°C° 0.7 mm 0 m/s 650 mmHg 95%
19:00 +18°C° 0.7 mm 0 m/s 651 mmHg 98%
20:00 +18°C° 1 mm 0 m/s 651 mmHg 97%
21:00 +18°C° 1 mm 0 m/s 651 mmHg 97%
22:00 +17°C° 1 mm 0 m/s 652 mmHg 97%
23:00 +17°C° 0.4 mm 0 m/s 651 mmHg 97%
Arată mai mult